Regional Weather Roundup
Issued by NWS

Home | Current Version | Previous Version | Graphics & Text | Print | Product List | Glossary On
Versions: 1 2 3 4 5 6 7 8 9 10 11 12 13 14 15 16 17 18 19 20 21 22 23 24 25 26 27 28 29 30 31 32 33 34 35 36 37 38 39 40 41 42 43 44 45 46 47 48 49 50
000
ASUS43 KMKX 261311
RWRWI

WISCONSIN REGIONAL WEATHER ROUNDUP
NATIONAL WEATHER SERVICE MILWAUKEE/SULLIVAN WI
800 AM CDT FRI AUG 26 2016

NOTE: "FAIR" INDICATES FEW OR NO CLOUDS BELOW 12,000 FEET WITH NO
SIGNIFICANT WEATHER AND/OR OBSTRUCTIONS TO VISIBILITY.

WIZ001-002-006>008-014>016-023>028-261400-
NORTHWEST WISCONSIN

CITY           SKY/WX    TMP DP  RH WIND       PRES   REMARKS
SUPERIOR ARPT  SUNNY     55  53  90 SW5       30.14R
ASHLAND        MOSUNNY   59  55  87 W7        30.13S
HAYWARD        SUNNY     54  53  97 S5        30.16R
SIREN          SUNNY     56  55  97 CALM      30.16R
CUMBERLAND     SUNNY     54  54 100 CALM      30.17R
RICE LAKE      SUNNY     55  54  96 CALM      30.19R
CHETEK         NOT AVBL
LADYSMITH      SUNNY     56  55  97 CALM      30.18R
EAU CLAIRE     SUNNY     57  56  96 W3        30.17R
MENOMONIE      SUNNY     58  56  93 CALM      30.18R
NEW RICHMOND   SUNNY     57  57 100 CALM      30.18R
OSCEOLA        SUNNY     56  56 100 CALM      30.20R
$$

WIZ003>005-009-010-017-018-261400-
NORTH CENTRAL WISCONSIN

CITY           SKY/WX    TMP DP  RH WIND       PRES   REMARKS
MANITOWISH WTR NOT AVBL
ARBOR VITAE    CLOUDY    57  55  95 NW5       30.15R
WOODRUFF       CLOUDY    57  55  95 NW5       30.15R
RHINELANDER    CLOUDY    55  55 100 W8        30.16R
EAGLE RIVER    CLOUDY    55  55 100 W9        30.14R
LAND O LAKES   CLOUDY    57  56  96 W5        30.15R
PHILLIPS       SUNNY     55  54  97 CALM      30.15R
TOMAHAWK       PTSUNNY   53  52  97 CALM      30.16R
MEDFORD        SUNNY     55  55 100 W3        30.17R
MERRILL        SUNNY     55  55  97 W3        30.17R
$$

WIZ029-030-035-036-043>047-261400-
CENTRAL WISCONSIN

CITY           SKY/WX    TMP DP  RH WIND       PRES   REMARKS
WAUSAU         SUNNY     57  53  86 NW6       30.16R
MOSINEE        SUNNY     55  55 100 W5        30.18R
MARSHFIELD     SUNNY     58  54  86 NW5       30.17R
STEVENS POINT  SUNNY     57  53  86 CALM      30.18R
WAUPACA        SUNNY     61  59  92 CALM      30.17R
WAUTOMA        MOSUNNY   58  57  97 CALM      30.18R
WISC RAPIDS    SUNNY     59  57  93 NW6       30.19R
CAMP DOUGLAS   MOSUNNY   57  57 100 W1        30.18R
$$

WIZ011>013-019>022-031-037>040-048>050-261400-
NORTHEAST WISCONSIN

CITY           SKY/WX    TMP DP  RH WIND       PRES   REMARKS
ANTIGO         SUNNY     55  54  94 W5        30.17R
SHAWANO        SUNNY     61  55  83 W5        30.16R
OCONTO         NOT AVBL
STURGEON BAY   SUNNY     63  57  81 W6        30.14R
GREEN BAY      MOSUNNY   61  59  93 W8        30.15R
MANITOWOC      SUNNY     63  56  78 W6        30.16R
APPLETON       MOSUNNY   57  57 100 W7        30.15R
CLINTONVILLE   SUNNY     59  54  82 W6        30.16R
OSHKOSH        SUNNY     62  56  80 W6        30.16R
$$

WIZ032>034-041-042-053>061-261400-
SOUTHWEST WISCONSIN

CITY           SKY/WX    TMP DP  RH WIND       PRES   REMARKS
LA CROSSE      SUNNY     62  60  93 SE3       30.19R
SPARTA         SUNNY     54  54  99 CALM      30.20R
VIROQUA        SUNNY     58  58 100 CALM      30.20R
BOSCOBEL       FOG       61  60  97 CALM      30.20R VSB<1/4
PRAIRIE DU CHI CLOUDY    61  59  92 CALM      30.19S
PLATTEVILLE    PTSUNNY   61  61 100 CALM      30.20R
$$

WIZ056-057-062-063-064-067-068-261400-
SOUTH CENTRAL WISCONSIN

CITY           SKY/WX    TMP DP  RH WIND       PRES   REMARKS
REEDSBURG      NOT AVBL
BARABOO/DELLS  CLOUDY    60  58  94 CALM      30.18R
LONE ROCK      FOG       60  59  96 W3        30.20R VSB 1/4
MINERAL POINT  PTSUNNY   61  61 100 CALM      30.20R
MADISON        CLOUDY    63  60  90 NW3       30.17R
MIDDLETON      CLOUDY    62  62 100 CALM      30.19R
WATERTOWN      MOSUNNY   62  61  97 CALM      30.17R
MONROE         CLOUDY    63  59  88 CALM      30.19R
JANESVILLE     MOSUNNY   63  63 100 CALM      30.17R
$$

WIZ051-052-058>065-066-070>072-261400-
SOUTHEAST WISCONSIN

CITY           SKY/WX    TMP DP  RH WIND       PRES   REMARKS
MILWAUKEE      PTSUNNY   68  58  70 NW5       30.16R
WAUKESHA       SUNNY     63  57  82 CALM      30.19R
MILWAUKEE/TIMM SUNNY     64  55  72 CALM      30.18R
RACINE         CLOUDY    64  59  83 NW7       30.18R
BURLINGTON     PTSUNNY   60  60  99 CALM      30.17S
KENOSHA        CLOUDY    65  60  84 NW5       30.17R
FOND DU LAC    MOSUNNY   63  57  81 W7        30.17R
SHEBOYGAN      MOSUNNY   63  59  87 W5        30.16R
WEST BEND      MOSUNNY   63  55  77 NW5       30.17S
JUNEAU         MOSUNNY   60  58  94 SW3       30.19R
$$

LSZ147-162-261400-
LAKE SUPERIOR

STATION/POSITION TIME  TEMP    WIND        PRES    WAVE
                       AIR SEA DIR/SP/G            HT/PER
                 (UTC) (F)     (DEG/KT/KT) (MB)    (FT/S)
W MID LAKE BUOY  1250   62 66  310/ 12/ 14 1018.7R   2/ 4
DEVILS ISLAND    1200   60     300/ 15/ 17 1019.7R
PORT WING        1200   59     220/  4/  7 1020.3
SAXON HARBOR     1200   59     210/  8/ 11 1019.6R
$$

LMZ867-665-643>646-261400-
LAKE MICHIGAN

STATION/POSITION TIME  TEMP    WIND        PRES    WAVE
                       AIR SEA DIR/SP/G            HT/PER
                 (UTC) (F)     (DEG/KT/KT) (MB)    (FT/S)
CHAMBERS ISLAND  1200   63     230/  4/  6 1019.3R
S GREEN BAY BUOY 1200   63 72  270/ 10/ 12 1019.2
N MID LAKE BUOY  1250   64 70  270/ 10/ 12 1018.5R   2/ 4
NORTHPORT PIER   1200   65     290/  5/ 12 1018.6S
SISTER BAY       1037   64     330/ 14/ 15   N/A
KEWAUNEE LAKESHO 1200   59     290/  4/  6 1019.4R
SHEBOYGAN LAKESH 1300   64     260/  5/  5 1020.6R
PORT WASHINGTON  1200   65     300/  4/  6 1021.7R
ATWATER BUOY     1300   59 48  310/  6/  6   N/A
MILWAUKEE LAKESH 1210   65     300/  4/  5   N/A
S MID LAKE BUOY  1250   70 74  350/ 10/ 12 1020.6R   2/ 4
KENOSHA   LAKESH 1300   66     330/  5/  7 1021.3R
$$

TC  - TEMPERATURE IN CELSIUS
VSB - VISIBILITY IN STATUTE MILES
WCI - WIND CHILL INDEX
HX  - HEAT INDEX





USA.gov is the U.S. government's official web portal to all federal, state and local government web resources and services.